Regional Weather Roundup
Issued by NWS

Home | Current Version | Previous Version | Graphics & Text | Print | Product List | Glossary On
Versions: 1 2 3 4 5 6 7 8 9 10 11 12 13 14 15 16 17 18 19 20 21 22 23 24 25 26 27 28 29 30 31 32 33 34 35 36 37 38 39 40 41 42 43 44 45 46 47 48 49
000
ASUS45 KCYS 040210
RWRWY

WYOMING REGIONAL WEATHER ROUNDUP
NATIONAL WEATHER SERVICE CHEYENNE WY
800 PM MDT SUN MAY 03 2015

NOTE:  "FAIR" INDICATES FEW OR NO CLOUDS BELOW 12,000 FEET
WITH NO SIGNIFICANT WEATHER AND/OR OBSTRUCTIONS TO VISIBILITY.

WYZ001-040300-
YELLOWSTONE NATIONAL PARK

CITY           SKY/WX    TMP DP  RH WIND       PRES   REMARKS
LK YELLOWSTONE   N/A     39  36  89 CALM      30.11S
W YELLOWSTONE  NOT AVBL

$$
WYZ002>013-054>058-071-098>099-040300-
NORTHERN WYOMING

CITY           SKY/WX    TMP DP  RH WIND       PRES   REMARKS
JACKSON        NOT AVBL
CODY           CLOUDY    54  39  58 SW5       30.00S
GREYBULL       FAIR      66  35  31 N14       29.91R
WORLAND        CLOUDY    63  42  46 S3        29.92R
SHERIDAN       MOCLDY    57  44  62 E6        30.00R
BUFFALO        MOCLDY    54  44  69 NW7       30.04R
GILLETTE       CLOUDY    58  37  45 E14       30.00S
HULETT         CLOUDY    55  34  44 E12       30.04S
NEWCASTLE      FAIR      55  36  47 E14G21    30.02S

$$
WYZ014>020-022>026-101>103-040300-
CENTRAL WYOMING

CITY           SKY/WX    TMP DP  RH WIND       PRES   REMARKS
BIG PINEY      LGT RAIN  44  40  85 S17       30.06R
PINEDALE       FAIR      52  36  54 S13       30.07R
DUBOIS         RAIN      45  36  70 W22G31    30.04R
LANDER         FAIR      53  43  68 NE9       29.93R
RIVERTON       FAIR      57  39  51 E6        29.96F
CASPER         LGT RAIN  60  41  49 SE9       29.97R
DOUGLAS        FAIR      59  40  49 SE17G25   30.00R

$$
WYZ021-027>030-104>119-040300-
SOUTHERN WYOMING

CITY           SKY/WX    TMP DP  RH WIND       PRES   REMARKS
EVANSTON       FAIR      53  39  59 NE15G24   30.02R
KEMMERER       FAIR      45  41  87 E7        30.07S
FORT BRIDGER   MOCLDY    52  45  76 N9        30.09R THUNDER
ROCK SPRINGS   LGT RAIN  50  39  66 NW18G26   30.07R
DIXON          FAIR      52  41  65 E12       30.07S
RAWLINS        MOCLDY    48  43  82 SE6       30.04R
SARATOGA       FAIR      46  41  81 E5        30.08F
LARAMIE        LGT RAIN  46  42  86 NE8       30.11R
CHEYENNE       FAIR      50  43  77 CALM      30.06S
TORRINGTON     MOCLDY    61  40  45 E12       29.99R
PINE BLUFFS    FAIR      54  43  66 SE3       30.03R

$$


USA.gov is the U.S. government's official web portal to all federal, state and local government web resources and services.